,,Stat5,,Stat1,,Stat2,,Stat3,,Stat4,,Wind1,,Wind1,
time,status,PA1M_AVG,status,PR1M_SUM,status,RH1M_AVG,status,SR1M_AVG,status,TA1M_AVG,status,W1dAve1m,status,W1sAve1m,
2001-02-16, 00:00:00,VALID,919.403,VALID,0,VALID,93.6117,VALID,-0.0509425,VALID,20.0245,VALID,166,VALID,0.826522,
2001-02-16, 00:01:00,VALID,919.375,VALID,0,VALID,93.5697,VALID,0,VALID,20.0347,VALID,162,VALID,0.953536,
2001-02-16, 00:02:00,VALID,919.357,VALID,0,VALID,93.5405,VALID,-0.0339617,VALID,20.0568,VALID,179,VALID,0.77241,
2001-02-16, 00:03:00,VALID,919.346,VALID,0,VALID,93.5456,VALID,-0.0509425,VALID,20.0795,VALID,186,VALID,0.917352,
2001-02-16, 00:04:00,VALID,919.34,VALID,0,VALID,93.557,VALID,-0.0339617,VALID,20.076,VALID,201,VALID,1.16081,
2001-02-16, 00:05:00,VALID,919.332,VALID,0,VALID,93.2887,VALID,-0.0509425,VALID,20.073,VALID,198,VALID,0.625617,
2001-02-16, 00:06:00,VALID,919.31,VALID,0,VALID,93.332,VALID,-0.0339617,VALID,20.0439,VALID,204,VALID,0.360547,
2001-02-16, 00:07:00,VALID,919.319,VALID,0,VALID,93.4261,VALID,-0.0509425,VALID,20.0114,VALID,205,VALID,0.268164,
2001-02-16, 00:08:00,VALID,919.304,VALID,0,VALID,93.716,VALID,-0.0509425,VALID,19.989,VALID,209,VALID,0.507011,
2001-02-16, 00:09:00,VALID,919.276,VALID,0,VALID,93.9055,VALID,-0.0339617,VALID,19.9562,VALID,217,VALID,0.375781,
2001-02-16, 00:10:00,VALID,919.249,VALID,0,VALID,94.1788,VALID,-0.0169808,VALID,19.9177,VALID,209,VALID,0.70293,
2001-02-16, 00:11:00,VALID,919.211,VALID,0,VALID,94.2806,VALID,-0.0169808,VALID,19.9209,VALID,205,VALID,1.10008,
2001-02-16, 00:12:00,VALID,919.179,VALID,0,VALID,94.2361,VALID,-0.0339617,VALID,19.9047,VALID,203,VALID,0.709635,
2001-02-16, 00:13:00,VALID,919.158,VALID,0,VALID,94.2094,VALID,0,VALID,19.9075,VALID,205,VALID,0.796289,
2001-02-16, 00:14:00,VALID,919.118,VALID,0,VALID,94.1356,VALID,-0.0169808,VALID,19.9211,VALID,210,VALID,0.729384,
2001-02-16, 00:15:00,VALID,919.089,VALID,0,VALID,94.2755,VALID,-0.0169808,VALID,19.9174,VALID,214,VALID,0.963542,
2001-02-16, 00:16:00,VALID,919.056,VALID,0,VALID,94.1,VALID,-0.0169808,VALID,19.9341,VALID,226,VALID,0.672309,
2001-02-16, 00:17:00,VALID,919.017,VALID,0,VALID,93.8686,VALID,-0.0169808,VALID,19.9505,VALID,216,VALID,1.22187,
2001-02-16, 00:18:00,VALID,918.987,VALID,0,VALID,93.5787,VALID,-0.0169808,VALID,19.9793,VALID,221,VALID,0.915625,
2001-02-16, 00:19:00,VALID,918.963,VALID,0,VALID,93.4159,VALID,-0.0339617,VALID,19.9987,VALID,209,VALID,0.953336,
2001-02-16, 00:20:00,VALID,918.973,VALID,0,VALID,93.2671,VALID,-0.0339617,VALID,20.0017,VALID,210,VALID,0.717773,
2001-02-16, 00:21:00,VALID,918.962,VALID,0,VALID,93.3841,VALID,-0.0339617,VALID,20.0054,VALID,210,VALID,1.09223,
2001-02-16, 00:22:00,VALID,918.956,VALID,0,VALID,93.3892,VALID,-0.0679233,VALID,19.9987,VALID,200,VALID,1.01583,
2001-02-16, 00:23:00,VALID,918.953,VALID,0,VALID,93.4388,VALID,0,VALID,20.0014,VALID,199,VALID,1.21553,
2001-02-16, 00:24:00,VALID,918.946,VALID,0,VALID,93.276,VALID,-0.0679233,VALID,20.0469,VALID,191,VALID,1.29978,
2001-02-16, 00:25:00,VALID,918.929,VALID,0,VALID,93.056,VALID,-0.0169808,VALID,20.0762,VALID,188,VALID,1.01803,
2001-02-16, 00:26:00,VALID,918.926,VALID,0,VALID,92.9874,VALID,-0.0339617,VALID,20.0755,VALID,190,VALID,1.01415,
2001-02-16, 00:27:00,VALID,918.928,VALID,0,VALID,93.1171,VALID,-0.0169808,VALID,20.0663,VALID,194,VALID,1.42948,
2001-02-16, 00:28:00,VALID,918.926,VALID,0,VALID,93.3205,VALID,-0.0169808,VALID,20.0536,VALID,196,VALID,1.39554,
2001-02-16, 00:29:00,VALID,918.922,VALID,0,VALID,93.4744,VALID,0,VALID,20.034,VALID,189,VALID,1.0621,
2001-02-16, 00:30:00,VALID,918.915,VALID,0,VALID,93.6766,VALID,0,VALID,20.0014,VALID,189,VALID,0.876184,
2001-02-16, 00:31:00,VALID,918.899,VALID,0,VALID,93.7681,VALID,-0.0169808,VALID,19.9753,VALID,176,VALID,0.626519,
2001-02-16, 00:32:00,VALID,918.876,VALID,0,VALID,93.9194,VALID,0,VALID,19.9597,VALID,186,VALID,0.733964,
2001-02-16, 00:33:00,VALID,918.862,VALID,0,VALID,93.8838,VALID,-0.0169808,VALID,19.9338,VALID,191,VALID,0.772436,
2001-02-16, 00:34:00,VALID,918.84,VALID,0,VALID,93.7668,VALID,0,VALID,19.9149,VALID,201,VALID,0.623047,
2001-02-16, 00:35:00,VALID,918.823,VALID,0,VALID,93.8177,VALID,-0.0169808,VALID,19.863,VALID,209,VALID,0.573214,
2001-02-16, 00:36:00,VALID,918.811,VALID,0,VALID,93.9576,VALID,0,VALID,19.818,VALID,220,VALID,0.709248,
2001-02-16, 00:37:00,VALID,918.816,VALID,0,VALID,94.161,VALID,-0.0339617,VALID,19.7566,VALID,221,VALID,1.11282,
2001-02-16, 00:38:00,VALID,918.814,VALID,0,VALID,94.6023,VALID,-0.0339617,VALID,19.6977,VALID,229,VALID,1.36652,
2001-02-16, 00:39:00,VALID,918.824,VALID,0,VALID,95.0041,VALID,0,VALID,19.6237,VALID,223,VALID,1.48458,
2001-02-16, 00:40:00,VALID,918.819,VALID,0,VALID,95.5077,VALID,0,VALID,19.5556,VALID,227,VALID,1.34164,
2001-02-16, 00:41:00,VALID,918.809,VALID,0,VALID,95.748,VALID,0,VALID,19.5109,VALID,221,VALID,1.26768,
2001-02-16, 00:42:00,VALID,918.79,VALID,0,VALID,95.8561,VALID,-0.0169808,VALID,19.455,VALID,222,VALID,1.11161,
2001-02-16, 00:43:00,VALID,918.785,VALID,0,VALID,95.9337,VALID,0,VALID,19.4299,VALID,220,VALID,1.32873,
2001-02-16, 00:44:00,VALID,918.762,VALID,0,VALID,96.1511,VALID,0,VALID,19.4072,VALID,222,VALID,1.66998,
2001-02-16, 00:45:00,VALID,918.745,VALID,0,VALID,96.3927,VALID,0,VALID,19.3943,VALID,226,VALID,1.46289,
2001-02-16, 00:46:00,VALID,918.744,VALID,0,VALID,96.4499,VALID,-0.0169808,VALID,19.3652,VALID,229,VALID,1.41879,
2001-02-16, 00:47:00,VALID,918.721,VALID,0,VALID,96.5275,VALID,0,VALID,19.3419,VALID,220,VALID,1.59796,
2001-02-16, 00:48:00,VALID,918.703,VALID,0,VALID,96.6038,VALID,-0.0169808,VALID,19.3325,VALID,219,VALID,1.27422,
2001-02-16, 00:49:00,VALID,918.706,VALID,0,VALID,96.661,VALID,0,VALID,19.3295,VALID,220,VALID,1.14799,
2001-02-16, 00:50:00,VALID,918.7,VALID,0,VALID,96.5746,VALID,0,VALID,19.3168,VALID,212,VALID,0.808277,
2001-02-16, 00:51:00,VALID,918.685,VALID,0,VALID,96.3711,VALID,-0.0509425,VALID,19.3138,VALID,207,VALID,0.403033,
2001-02-16, 00:52:00,VALID,918.692,VALID,0,VALID,96.3495,VALID,-0.0169808,VALID,19.2974,VALID,206,VALID,0.495089,
2001-02-16, 00:53:00,VALID,918.673,VALID,0,VALID,96.4677,VALID,-0.0169808,VALID,19.2944,VALID,210,VALID,0.749599,
2001-02-16, 00:54:00,VALID,918.667,VALID,0,VALID,96.6445,VALID,-0.0339617,VALID,19.3101,VALID,210,VALID,0.831292,
2001-02-16, 00:55:00,VALID,918.647,VALID,0,VALID,96.4779,VALID,0,VALID,19.3367,VALID,183,VALID,0.769326,
2001-02-16, 00:56:00,VALID,918.643,VALID,0,VALID,96.5669,VALID,-0.0169808,VALID,19.3623,VALID,203,VALID,1.33705,
2001-02-16, 00:57:00,VALID,918.614,VALID,0,VALID,96.5046,VALID,-0.0339617,VALID,19.4075,VALID,211,VALID,1.35176,
2001-02-16, 00:58:00,VALID,918.602,VALID,0,VALID,96.2363,VALID,-0.0169808,VALID,19.4428,VALID,233,VALID,0.95715,
2001-02-16, 00:59:00,VALID,918.583,VALID,0,VALID,95.9451,VALID,0,VALID,19.4659,VALID,216,VALID,1.1135,
2001-02-16, 01:00:00,VALID,918.575,VALID,0,VALID,95.8815,VALID,-0.0339617,VALID,19.4559,VALID,223,VALID,1.41283,
2001-02-16, 01:01:00,VALID,918.557,VALID,0,VALID,96.1219,VALID,0,VALID,19.4684,VALID,222,VALID,1.64984,
2001-02-16, 01:02:00,VALID,918.546,VALID,0,VALID,95.9667,VALID,0,VALID,19.4778,VALID,225,VALID,1.36133,
2001-02-16, 01:03:00,VALID,918.534,VALID,0,VALID,95.9731,VALID,0,VALID,19.4815,VALID,225,VALID,1.5192,
2001-02-16, 01:04:00,VALID,918.526,VALID,0,VALID,96.0265,VALID,0.0169808,VALID,19.4885,VALID,224,VALID,1.44151,
2001-02-16, 01:05:00,VALID,918.52,VALID,0,VALID,96.0061,VALID,-0.0169808,VALID,19.4753,VALID,228,VALID,1.21301,
2001-02-16, 01:06:00,VALID,918.507,VALID,0,VALID,96.0011,VALID,0,VALID,19.4622,VALID,225,VALID,1.19174,
2001-02-16, 01:07:00,VALID,918.497,VALID,0,VALID,95.9947,VALID,-0.0339617,VALID,19.4592,VALID,220,VALID,1.20453,
2001-02-16, 01:08:00,VALID,918.487,VALID,0,VALID,95.9909,VALID,0,VALID,19.4425,VALID,220,VALID,1.1117,
2001-02-16, 01:09:00,VALID,918.47,VALID,0,VALID,96.0507,VALID,-0.0169808,VALID,19.4169,VALID,224,VALID,0.972245,
2001-02-16, 01:10:00,VALID,918.445,VALID,0,VALID,96.099,VALID,-0.0339617,VALID,19.3946,VALID,229,VALID,0.983482,
2001-02-16, 01:11:00,VALID,918.426,VALID,0,VALID,96.2299,VALID,-0.0339617,VALID,19.3754,VALID,223,VALID,1.16506,
2001-02-16, 01:12:00,VALID,918.399,VALID,0,VALID,96.3393,VALID,-0.0509425,VALID,19.3394,VALID,215,VALID,0.950994,
2001-02-16, 01:13:00,VALID,918.385,VALID,0,VALID,96.3482,VALID,-0.0339617,VALID,19.3106,VALID,202,VALID,0.591146,
2001-02-16, 01:14:00,VALID,918.382,VALID,0,VALID,96.5288,VALID,-0.0169808,VALID,19.2979,VALID,192,VALID,0.687294,
2001-02-16, 01:15:00,VALID,918.363,VALID,0,VALID,96.6432,VALID,-0.0169808,VALID,19.288,VALID,193,VALID,0.672075,
2001-02-16, 01:16:00,VALID,918.349,VALID,0,VALID,96.6102,VALID,-0.0339617,VALID,19.278,VALID,196,VALID,0.539063,
2001-02-16, 01:17:00,VALID,918.312,VALID,0,VALID,96.5178,VALID,0,VALID,19.2691,VALID,195,VALID,0.498972,
2001-02-16, 01:18:00,VALID,918.312,VALID,0,VALID,96.3762,VALID,-0.0339617,VALID,19.2559,VALID,196,VALID,0.484375,
2001-02-16, 01:19:00,VALID,918.296,VALID,0,VALID,96.4156,VALID,-0.0509425,VALID,19.2365,VALID,212,VALID,0.675781,
2001-02-16, 01:20:00,VALID,918.27,VALID,0,VALID,96.4334,VALID,0,VALID,19.2199,VALID,202,VALID,0.770089,
2001-02-16, 01:21:00,VALID,918.239,VALID,0,VALID,96.4703,VALID,-0.0169808,VALID,19.2003,VALID,181,VALID,1.02023,
2001-02-16, 01:22:00,VALID,918.231,VALID,0,VALID,96.5415,VALID,0,VALID,19.2137,VALID,183,VALID,0.981208,
2001-02-16, 01:23:00,VALID,918.218,VALID,0,VALID,96.4741,VALID,-0.0509425,VALID,19.2273,VALID,192,VALID,0.689967,
2001-02-16, 01:24:00,VALID,918.203,VALID,0,VALID,96.319,VALID,-0.0169808,VALID,19.2234,VALID,191,VALID,0.479241,
2001-02-16, 01:25:00,VALID,918.205,VALID,0,VALID,96.2249,VALID,-0.0849042,VALID,19.2144,VALID,194,VALID,0.670272,
2001-02-16, 01:26:00,VALID,918.205,VALID,0,VALID,96.3279,VALID,-0.101885,VALID,19.202,VALID,183,VALID,1.12334,
2001-02-16, 01:27:00,VALID,918.194,VALID,0,VALID,96.3279,VALID,-0.0679233,VALID,19.1982,VALID,170,VALID,0.505208,
2001-02-16, 01:28:00,VALID,918.185,VALID,0,VALID,96.2783,VALID,-0.0679233,VALID,19.1726,VALID,189,VALID,0.495683,
2001-02-16, 01:29:00,VALID,918.168,VALID,0,VALID,96.3953,VALID,-0.0339617,VALID,19.1466,VALID,207,VALID,0.492588,
2001-02-16, 01:30:00,VALID,918.146,VALID,0,VALID,96.6102,VALID,-0.0679233,VALID,19.1396,VALID,210,VALID,0.476367,
2001-02-16, 01:31:00,VALID,918.118,VALID,0,VALID,96.7373,VALID,-0.0849042,VALID,19.1269,VALID,218,VALID,0.75558,
2001-02-16, 01:32:00,VALID,918.114,VALID,0,VALID,96.8556,VALID,-0.0849042,VALID,19.1408,VALID,232,VALID,0.802365,
2001-02-16, 01:33:00,VALID,918.111,VALID,0,VALID,96.8607,VALID,-0.0509425,VALID,19.1269,VALID,232,VALID,0.917969,
2001-02-16, 01:34:00,VALID,918.114,VALID,0,VALID,96.937,VALID,-0.0849042,VALID,19.1595,VALID,233,VALID,1.12656,
2001-02-16, 01:35:00,VALID,918.106,VALID,0,VALID,96.9014,VALID,-0.0849042,VALID,19.1722,VALID,233,VALID,1.41707,
2001-02-16, 01:36:00,VALID,918.093,VALID,0,VALID,96.909,VALID,-0.0849042,VALID,19.198,VALID,227,VALID,1.19447,
2001-02-16, 01:37:00,VALID,918.077,VALID,0,VALID,96.6826,VALID,-0.0679233,VALID,19.2176,VALID,221,VALID,1.17044,
2001-02-16, 01:38:00,VALID,918.068,VALID,0,VALID,96.6725,VALID,-0.0679233,VALID,19.2303,VALID,216,VALID,1.07232,
2001-02-16, 01:39:00,VALID,918.065,VALID,0,VALID,96.2884,VALID,-0.0509425,VALID,19.2469,VALID,170,VALID,0.672676,
2001-02-16, 01:40:00,VALID,918.052,VALID,0,VALID,95.4517,VALID,-0.0679233,VALID,19.1953,VALID,152,VALID,0.414773,
2001-02-16, 01:41:00,VALID,918.031,VALID,0,VALID,95.3907,VALID,-0.0679233,VALID,19.1371,VALID,150,VALID,0.501302,
2001-02-16, 01:42:00,VALID,918.025,VALID,0,VALID,96.4029,VALID,-0.0679233,VALID,19.1659,VALID,191,VALID,0.525699,
2001-02-16, 01:43:00,VALID,918.001,VALID,0,VALID,96.8149,VALID,-0.0679233,VALID,19.2181,VALID,196,VALID,0.773638,
2001-02-16, 01:44:00,VALID,918.01,VALID,0,VALID,96.4932,VALID,-0.0849042,VALID,19.2338,VALID,156,VALID,0.356836,
2001-02-16, 01:45:00,VALID,918.003,VALID,0,VALID,96.1905,VALID,-0.101885,VALID,19.2209,VALID,169,VALID,0.46942,
2001-02-16, 01:46:00,VALID,918.004,VALID,0,VALID,96.4563,VALID,-0.0849042,VALID,19.2238,VALID,197,VALID,0.470017,
2001-02-16, 01:47:00,VALID,917.995,VALID,0,VALID,96.6407,VALID,-0.101885,VALID,19.2534,VALID,223,VALID,0.427619,
2001-02-16, 01:48:00,VALID,917.992,VALID,0,VALID,96.7653,VALID,-0.0679233,VALID,19.2626,VALID,218,VALID,0.622768,
2001-02-16, 01:49:00,VALID,917.978,VALID,0,VALID,96.5224,VALID,-0.0849042,VALID,19.2792,VALID,192,VALID,0.545272,
2001-02-16, 01:50:00,VALID,917.977,VALID,0,VALID,95.3271,VALID,-0.0849042,VALID,19.1823,VALID,154,VALID,0.71875,
2001-02-16, 01:51:00,VALID,917.989,VALID,0,VALID,96.2185,VALID,-0.0849042,VALID,19.1498,VALID,188,VALID,0.486842,
2001-02-16, 01:52:00,VALID,917.98,VALID,0,VALID,96.5758,VALID,-0.0679233,VALID,19.156,VALID,227,VALID,0.754464,
2001-02-16, 01:53:00,VALID,917.974,VALID,0,VALID,96.7589,VALID,0.0339617,VALID,19.1578,VALID,233,VALID,1.19752,
2001-02-16, 01:54:00,VALID,917.961,VALID,0,VALID,96.834,VALID,0.0679233,VALID,19.1873,VALID,237,VALID,0.958097,
2001-02-16, 01:55:00,VALID,917.937,VALID,0,VALID,96.8034,VALID,0.0169808,VALID,19.2062,VALID,233,VALID,0.902127,
2001-02-16, 01:56:00,VALID,917.93,VALID,0,VALID,96.8047,VALID,0.0169808,VALID,19.2192,VALID,239,VALID,0.883635,
2001-02-16, 01:57:00,VALID,917.923,VALID,0,VALID,96.6661,VALID,0.0509425,VALID,19.2351,VALID,229,VALID,1.09455,
2001-02-16, 01:58:00,VALID,917.912,VALID,0,VALID,96.5364,VALID,0.0509425,VALID,19.2582,VALID,232,VALID,1.29668,
2001-02-16, 01:59:00,VALID,917.919,VALID,0,VALID,96.5402,VALID,0.0169808,VALID,19.2641,VALID,233,VALID,1.10446,
2001-02-16, 02:00:00,VALID,917.908,VALID,0,VALID,96.6458,VALID,0,VALID,19.284,VALID,229,VALID,1.49894,
2001-02-16, 02:01:00,VALID,917.903,VALID,0,VALID,96.7297,VALID,0.0339617,VALID,19.3195,VALID,229,VALID,1.06204,
2001-02-16, 02:02:00,VALID,917.901,VALID,0,VALID,96.6508,VALID,0,VALID,19.3359,VALID,227,VALID,1.42165,
2001-02-16, 02:03:00,VALID,917.889,VALID,0,VALID,96.6966,VALID,0.0509425,VALID,19.3484,VALID,224,VALID,1.33734,
2001-02-16, 02:04:00,VALID,917.881,VALID,0,VALID,96.7271,VALID,0.0339617,VALID,19.3844,VALID,230,VALID,1.4394,
2001-02-16, 02:05:00,VALID,917.878,VALID,0,VALID,96.6318,VALID,0.0509425,VALID,19.41,VALID,230,VALID,1.4484,
2001-02-16, 02:06:00,VALID,917.863,VALID,0,VALID,96.4563,VALID,0.0339617,VALID,19.4356,VALID,228,VALID,1.28594,
2001-02-16, 02:07:00,VALID,917.866,VALID,0,VALID,96.2554,VALID,0.0339617,VALID,19.4487,VALID,225,VALID,1.00461,
2001-02-16, 02:08:00,VALID,917.873,VALID,0,VALID,96.3139,VALID,0.0679233,VALID,19.452,VALID,228,VALID,1.4117,
2001-02-16, 02:09:00,VALID,917.875,VALID,0,VALID,96.319,VALID,0.0679233,VALID,19.4617,VALID,227,VALID,1.49826,
2001-02-16, 02:10:00,VALID,917.854,VALID,0,VALID,96.2567,VALID,0.101885,VALID,19.4453,VALID,228,VALID,1.33738,
2001-02-16, 02:11:00,VALID,917.836,VALID,0,VALID,96.3228,VALID,0.0339617,VALID,19.4458,VALID,228,VALID,1.60417,
2001-02-16, 02:12:00,VALID,917.815,VALID,0,VALID,96.3673,VALID,0.0339617,VALID,19.4259,VALID,221,VALID,1.77461,
2001-02-16, 02:13:00,VALID,917.809,VALID,0,VALID,96.4944,VALID,0.0509425,VALID,19.4324,VALID,220,VALID,1.66138,
2001-02-16, 02:14:00,VALID,917.794,VALID,0,VALID,96.5199,VALID,0.0849042,VALID,19.445,VALID,230,VALID,1.52998,
2001-02-16, 02:15:00,VALID,917.801,VALID,0,VALID,96.4474,VALID,0.0339617,VALID,19.4753,VALID,222,VALID,1.63304,
2001-02-16, 02:16:00,VALID,917.81,VALID,0,VALID,96.2948,VALID,0.0509425,VALID,19.4907,VALID,218,VALID,1.12455,
2001-02-16, 02:17:00,VALID,917.805,VALID,0,VALID,96.2516,VALID,0.0169808,VALID,19.4838,VALID,219,VALID,1.3137,
2001-02-16, 02:18:00,VALID,917.823,VALID,0,VALID,96.1982,VALID,0.0509425,VALID,19.4942,VALID,217,VALID,1.33868,
2001-02-16, 02:19:00,VALID,917.831,VALID,0,VALID,96.2427,VALID,0.0169808,VALID,19.4873,VALID,214,VALID,1.43421,
2001-02-16, 02:20:00,VALID,917.833,VALID,0,VALID,96.3482,VALID,0.0169808,VALID,19.5131,VALID,224,VALID,1.77879,
2001-02-16, 02:21:00,VALID,917.828,VALID,0,VALID,96.1308,VALID,0.0169808,VALID,19.5325,VALID,225,VALID,1.33854,
2001-02-16, 02:22:00,VALID,917.841,VALID,0,VALID,96.0316,VALID,0.0169808,VALID,19.5491,VALID,224,VALID,1.42353,
2001-02-16, 02:23:00,VALID,917.828,VALID,0,VALID,95.9451,VALID,0.0509425,VALID,19.5268,VALID,227,VALID,1.51997,
2001-02-16, 02:24:00,VALID,917.81,VALID,0,VALID,96.0926,VALID,0.0339617,VALID,19.523,VALID,232,VALID,1.58779,
2001-02-16, 02:25:00,VALID,917.787,VALID,0,VALID,96.1193,VALID,0.0339617,VALID,19.5161,VALID,231,VALID,1.4347,
2001-02-16, 02:26:00,VALID,917.775,VALID,0,VALID,96.0964,VALID,0,VALID,19.533,VALID,222,VALID,1.51953,
2001-02-16, 02:27:00,VALID,917.755,VALID,0,VALID,96.1409,VALID,0.0169808,VALID,19.53,VALID,228,VALID,1.49621,
2001-02-16, 02:28:00,VALID,917.752,VALID,0,VALID,96.1702,VALID,0.0509425,VALID,19.5322,VALID,209,VALID,1.02893,
2001-02-16, 02:29:00,VALID,917.758,VALID,0,VALID,96.1486,VALID,0,VALID,19.523,VALID,208,VALID,1.09214,
2001-02-16, 02:30:00,VALID,917.756,VALID,0,VALID,96.2503,VALID,0.0169808,VALID,19.5136,VALID,221,VALID,1.0933,
2001-02-16, 02:31:00,VALID,917.747,VALID,0,VALID,96.2096,VALID,0.0169808,VALID,19.5009,VALID,218,VALID,0.919671,
2001-02-16, 02:32:00,VALID,917.747,VALID,0,VALID,96.319,VALID,0.0679233,VALID,19.4977,VALID,212,VALID,1.29983,
2001-02-16, 02:33:00,VALID,917.735,VALID,0,VALID,96.4995,VALID,0.0509425,VALID,19.4875,VALID,225,VALID,1.10424,
2001-02-16, 02:34:00,VALID,917.738,VALID,0,VALID,96.5313,VALID,0.0679233,VALID,19.5037,VALID,224,VALID,1.35915,
2001-02-16, 02:35:00,VALID,917.736,VALID,0,VALID,96.3635,VALID,0.0509425,VALID,19.527,VALID,217,VALID,0.994792,
2001-02-16, 02:36:00,VALID,917.741,VALID,0,VALID,96.3228,VALID,0.0509425,VALID,19.5226,VALID,218,VALID,1.05019,
2001-02-16, 02:37:00,VALID,917.738,VALID,0,VALID,96.3558,VALID,0.0509425,VALID,19.5228,VALID,216,VALID,1.06055,
2001-02-16, 02:38:00,VALID,917.749,VALID,0,VALID,96.1969,VALID,0.0509425,VALID,19.5265,VALID,206,VALID,0.630962,
2001-02-16, 02:39:00,VALID,917.749,VALID,0,VALID,96.1689,VALID,0.0169808,VALID,19.494,VALID,178,VALID,0.939904,
2001-02-16, 02:40:00,VALID,917.755,VALID,0,VALID,96.3279,VALID,0.0169808,VALID,19.4808,VALID,199,VALID,0.947461,
2001-02-16, 02:41:00,VALID,917.746,VALID,0,VALID,96.3736,VALID,0.0339617,VALID,19.4743,VALID,208,VALID,0.996429,
2001-02-16, 02:42:00,VALID,917.754,VALID,0,VALID,96.3151,VALID,0.0339617,VALID,19.4552,VALID,206,VALID,1.2897,
2001-02-16, 02:43:00,VALID,917.742,VALID,0,VALID,96.3838,VALID,0.0169808,VALID,19.4197,VALID,222,VALID,1.11903,
2001-02-16, 02:44:00,VALID,917.754,VALID,0,VALID,96.703,VALID,0.0169808,VALID,19.4,VALID,220,VALID,1.4904,
2001-02-16, 02:45:00,VALID,917.755,VALID,0,VALID,96.7055,VALID,0,VALID,19.41,VALID,220,VALID,1.27945,
2001-02-16, 02:46:00,VALID,917.748,VALID,0,VALID,96.5491,VALID,0.0339617,VALID,19.4229,VALID,208,VALID,0.913218,
2001-02-16, 02:47:00,VALID,917.757,VALID,0,VALID,96.511,VALID,0,VALID,19.4167,VALID,192,VALID,0.814967,
2001-02-16, 02:48:00,VALID,917.754,VALID,0,VALID,96.5313,VALID,0.0509425,VALID,19.3998,VALID,213,VALID,0.726339,
2001-02-16, 02:49:00,VALID,917.736,VALID,0,VALID,96.5135,VALID,0.0339617,VALID,19.3971,VALID,183,VALID,0.801082,
2001-02-16, 02:50:00,VALID,917.73,VALID,0,VALID,96.3457,VALID,0.0849042,VALID,19.3581,VALID,159,VALID,0.634943,
2001-02-16, 02:51:00,VALID,917.727,VALID,0,VALID,96.6407,VALID,0.0679233,VALID,19.3357,VALID,188,VALID,1.26367,
2001-02-16, 02:52:00,VALID,917.727,VALID,0,VALID,96.7182,VALID,0.0169808,VALID,19.3161,VALID,200,VALID,1.12233,
2001-02-16, 02:53:00,VALID,917.717,VALID,0,VALID,96.7895,VALID,0.0509425,VALID,19.2974,VALID,205,VALID,0.777244,
2001-02-16, 02:54:00,VALID,917.72,VALID,0,VALID,96.9395,VALID,0.0679233,VALID,19.2778,VALID,210,VALID,0.785547,
2001-02-16, 02:55:00,VALID,917.721,VALID,0,VALID,97.0247,VALID,0.0679233,VALID,19.2612,VALID,202,VALID,0.858036,
2001-02-16, 02:56:00,VALID,917.713,VALID,0,VALID,97.0412,VALID,0.0849042,VALID,19.2616,VALID,178,VALID,1.25676,
2001-02-16, 02:57:00,VALID,917.732,VALID,0,VALID,97.0641,VALID,0.0679233,VALID,19.245,VALID,197,VALID,1.19049,
2001-02-16, 02:58:00,VALID,917.706,VALID,0,VALID,97.3019,VALID,0.0509425,VALID,19.2676,VALID,192,VALID,1.72299,
2001-02-16, 02:59:00,VALID,917.69,VALID,0,VALID,97.2294,VALID,0.0679233,VALID,19.2803,VALID,186,VALID,1.67849,
2001-02-16, 03:00:00,VALID,917.68,VALID,0,VALID,97.1722,VALID,0.0169808,VALID,19.2902,VALID,191,VALID,1.53948,
2001-02-16, 03:01:00,VALID,917.672,VALID,0,VALID,97.148,VALID,0.0339617,VALID,19.2969,VALID,201,VALID,1.32977,
2001-02-16, 03:02:00,VALID,917.659,VALID,0,VALID,97.1569,VALID,0.0339617,VALID,19.2939,VALID,204,VALID,0.957366,
2001-02-16, 03:03:00,VALID,917.657,VALID,0,VALID,97.1938,VALID,0.0509425,VALID,19.2935,VALID,199,VALID,0.876002,
2001-02-16, 03:04:00,VALID,917.654,VALID,0,VALID,97.218,VALID,0.0339617,VALID,19.3168,VALID,205,VALID,1.01373,
2001-02-16, 03:05:00,VALID,917.638,VALID,0,VALID,97.1811,VALID,0.0509425,VALID,19.326,VALID,187,VALID,0.889323,
2001-02-16, 03:06:00,VALID,917.646,VALID,0,VALID,97.0921,VALID,0,VALID,19.3456,VALID,191,VALID,0.713816,
2001-02-16, 03:07:00,VALID,917.634,VALID,0,VALID,97.1582,VALID,0.0509425,VALID,19.3449,VALID,202,VALID,1.33433,
2001-02-16, 03:08:00,VALID,917.616,VALID,0,VALID,97.0463,VALID,-0.0339617,VALID,19.3724,VALID,197,VALID,0.806641,
2001-02-16, 03:09:00,VALID,917.634,VALID,0,VALID,96.9751,VALID,-0.0509425,VALID,19.3821,VALID,190,VALID,1.12366,
2001-02-16, 03:10:00,VALID,917.613,VALID,0,VALID,96.9395,VALID,-0.0679233,VALID,19.3983,VALID,190,VALID,1.04476,
2001-02-16, 03:11:00,VALID,917.613,VALID,0,VALID,96.8454,VALID,-0.101885,VALID,19.4052,VALID,175,VALID,1.13488,
2001-02-16, 03:12:00,VALID,917.602,VALID,0,VALID,96.7246,VALID,-0.0679233,VALID,19.4047,VALID,184,VALID,1.23996,
2001-02-16, 03:13:00,VALID,917.585,VALID,0,VALID,96.5173,VALID,-0.0849042,VALID,19.3921,VALID,201,VALID,1.08153,
2001-02-16, 03:14:00,VALID,917.571,VALID,0,VALID,96.6051,VALID,-0.0339617,VALID,19.3657,VALID,196,VALID,1.36022,
2001-02-16, 03:15:00,VALID,917.549,VALID,0,VALID,96.6483,VALID,-0.0509425,VALID,19.3695,VALID,200,VALID,1.19922,
2001-02-16, 03:16:00,VALID,917.543,VALID,0,VALID,96.5974,VALID,-0.0679233,VALID,19.3727,VALID,209,VALID,0.570313,
2001-02-16, 03:17:00,VALID,917.557,VALID,0,VALID,96.661,VALID,-0.0679233,VALID,19.3593,VALID,225,VALID,0.963141,
2001-02-16, 03:18:00,VALID,917.559,VALID,0,VALID,96.7233,VALID,-0.0509425,VALID,19.3791,VALID,223,VALID,1.09493,
2001-02-16, 03:19:00,VALID,917.575,VALID,0,VALID,96.689,VALID,-0.0679233,VALID,19.4018,VALID,198,VALID,1.06055,
2001-02-16, 03:20:00,VALID,917.58,VALID,0,VALID,96.6025,VALID,-0.0509425,VALID,19.4177,VALID,191,VALID,1.33758,
2001-02-16, 03:21:00,VALID,917.57,VALID,0,VALID,96.3584,VALID,-0.0679233,VALID,19.4532,VALID,195,VALID,1.16126,
2001-02-16, 03:22:00,VALID,917.568,VALID,0,VALID,96.2249,VALID,-0.0679233,VALID,19.4726,VALID,208,VALID,1.2332,
2001-02-16, 03:23:00,VALID,917.576,VALID,0,VALID,96.0875,VALID,-0.0849042,VALID,19.4954,VALID,210,VALID,1.38951,
2001-02-16, 03:24:00,VALID,917.575,VALID,0,VALID,96.0036,VALID,-0.0849042,VALID,19.521,VALID,216,VALID,0.994932,
2001-02-16, 03:25:00,VALID,917.571,VALID,0,VALID,95.8167,VALID,-0.0849042,VALID,19.5407,VALID,198,VALID,0.605009,
2001-02-16, 03:26:00,VALID,917.571,VALID,0,VALID,95.6946,VALID,-0.0849042,VALID,19.5409,VALID,201,VALID,1.36629,
2001-02-16, 03:27:00,VALID,917.55,VALID,0,VALID,95.5827,VALID,-0.0679233,VALID,19.5404,VALID,219,VALID,1.14042,
2001-02-16, 03:28:00,VALID,917.548,VALID,0,VALID,95.5191,VALID,-0.0509425,VALID,19.5566,VALID,222,VALID,1.04519,
2001-02-16, 03:29:00,VALID,917.543,VALID,0,VALID,95.4784,VALID,-0.0509425,VALID,19.5499,VALID,221,VALID,1.0111,
2001-02-16, 03:30:00,VALID,917.541,VALID,0,VALID,95.4822,VALID,-0.0169808,VALID,19.57,VALID,215,VALID,1.30938,
2001-02-16, 03:31:00,VALID,917.542,VALID,0,VALID,95.3869,VALID,-0.0679233,VALID,19.573,VALID,219,VALID,0.768429,